sat.trackr.live / text

‹ back to catalog

STARLINK-5351

NORAD 56511 · 2023-065J

PAYLOAD ACTIVE UNKNOWN

§ Identity

Operator
Country
US
Launch date
2023-05-14
Launch site
AFETR
Launch vehicle
Mass (kg)
RCS (m²)

Purposes: comms

External: N2YO · Heavens-Above · Gunter

§ Orbital elements

Epoch: 2026-09-20T03:54:31.218912Z

Period
94.27 min
Inclination
43.0017°
Eccentricity
0.0000859
Mean motion
15.27574822 rev/d
Perigee alt
482.5 km
Apogee alt
483.7 km
Semi-major
6,861.2 km
B*
5.8353e-6
RAAN
194.0447°
Arg perigee
266.8187°
Mean anomaly
93.2567°
Rev number
18,634

§ Raw data

STARLINK-53511 56511U 23065J   26263.16286133 -.00000101  00000+0  58353-5 0  99942 56511  43.0017 194.0447 0000859 266.8187  93.2567 15.27574822186341

JSON: /api/v1/satellites/56511 · /tle

For live sub-satellite position, see the globe view (requires WebGL).

§ Visibility from observer

Set your observer location to see the next 7 days of passes ≥ 10°. The values pass through the URL so the page stays shareable.

No JS? Fill the form by hand. The geolocation button needs JavaScript.